SCP
0 0 0 0 0 0 0 0 0 0 0 0 0 -0 -0 -0 -0 -0 -0 -0 -0 0 0 0 0 0 0 0 0 0 0 0 0 0 0 0 0 0 0 0 0 0 0
0 0 0 0 0 0 0 0 0 0 0 0 0 0 0 -0 -0 -0 -0 -0 -0 0 0 0 0 0 0 0 0 0 0 0 0 0 0 0 0 0 0 0 0 0 0
0 0 0 0 0 0 0 0 0 0 0 0 0 0 0 0 0 0 -0 -0 -0 0 0 0 0 0 0 0 0 0 0 0 0 0 0 0 0 0 0 0 0 0 0
0 0 0 0 0 0 0 0 0 0 0 0 0 0 0 0 0 0 0 0 0 0 0 0 0 0 0 0 0 0 0 0 0 0 0 0 0 0 0 0 0 0 0
0 0 0 0 0 0 0 0 0 0 0 0 0 0 0 0 0 0 0 0 0 0 0 0 0 0 0 0 0 0 0 0 0 0 0 0 0 0 0 0 0 0 0
0 0 0 0 0 0 0 0 0 0 0 0 0 0 0 0 0 0 0 0 0 0 0 0 0 0 0 0 0 0 0 0 0 0 0 0 0 0 0 0 0 0 0
0 0 0 0 0 0 0 0 0 0 0 0 0 0 0 0 0 0 0 0 0 0 0 0 0 0 0 0 0 0 0 0 0 0 0 0 0 0 0 0 0 0 0
0 0 0 0 0 0 0 0 0 0 0 0 0 0 0 0 0 0 0 0 0 0 0 0 0 0 0 0 0 0 0 0 0 0 0 0 0 1 1 1 0 0 0
1 1 0 0 0 0 0 0 0 0 0 0 0 0 0 0 0 0 0 0 0 0 0 0 0 0 0 0 0 0 0 0 0 0 0 0 0 1 1 1 0 0 0
1 1 0 0 0 0 0 0 0 0 0 0 0 0 0 0 0 0 0 0 0 0 0 0 0 0 0 0 0 0 0 0 0 0 0 0 1 1 1 1 1 0 0
1 1 1 0 0 0 0 0 0 0 0 0 0 0 0 0 0 0 0 1 1 1 0 0 0 0 0 0 0 1 0 0 0 0 0 1 1 1 1 1 1 0 0
1 1 1 1 0 0 0 0 0 0 0 0 0 0 0 0 0 0 1 1 1 1 1 1 1 0 0 0 0 1 1 0 0 0 0 1 1 1 1 1 1 1 0
1 1 1 1 1 1 0 0 0 0 0 0 1 1 1 0 0 1 1 1 1 1 1 1 1 1 1 0 1 1 1 0 0 0 1 1 1 1 1 1 1 1 1
1 1 2 2 2 1 1 1 1 1 1 1 1 1 1 1 1 1 1 1 1 1 1 1 1 1 1 1 1 1 1 1 1 1 1 1 2 2 1 1 1 1 1
2 2 2 3 3 2 2 2 1 1 1 1 1 1 1 1 1 1 2 2 1 1 1 1 1 1 1 1 1 1 1 1 1 1 1 2 2 2 2 2 1 1 1
2 2 3 4 4 4 3 2 2 2 1 2 2 2 2 2 2 2 2 2 2 1 2 2 2 1 1 1 1 1 1 1 1 1 1 2 2 2 2 2 2 2 1
3 3 3 4 4 4 4 3 2 2 2 2 2 3 3 3 3 3 3 3 2 2 2 2 2 2 1 1 1 1 1 1 1 1 2 2 2 2 2 2 2 2 2
4 5 5 4 5 5 5 4 3 2 2 3 3 4 4 4 4 4 4 3 3 3 2 2 2 2 1 1 1 1 1 1 1 1 2 2 2 2 2 3 2 2 2
6 7 7 6 5 6 5 4 4 3 3 3 4 5 5 5 5 5 5 4 3 3 3 3 2 2 2 1 1 1 1 1 1 1 1 2 2 2 2 2 2 2 2
7 8 8 7 7 7 6 5 4 4 4 4 4 5 6 6 6 6 5 4 4 3 3 3 3 2 2 2 1 1 1 1 1 1 1 1 2 2 2 2 2 2 2
7 8 8 8 7 7 6 5 5 4 4 4 5 5 6 6 6 6 5 4 4 4 3 3 3 3 2 2 1 1 1 1 1 1 1 1 2 2 2 2 2 2 2
6 7 7 6 6 5 5 5 5 5 4 5 5 6 6 6 6 5 5 4 4 4 3 3 3 2 2 2 2 1 1 1 1 1 1 1 2 2 1 1 1 2 2
5 5 5 5 5 4 4 5 5 5 5 5 5 6 6 5 5 4 4 4 3 3 3 3 2 2 2 2 1 1 1 1 1 1 1 1 1 1 1 1 1 1 1
3 3 3 3 3 4 4 4 5 5 5 5 6 6 5 5 4 4 3 3 3 3 2 2 2 2 2 1 1 1 1 1 1 1 1 1 1 1 1 1 1 1 1
1 1 2 2 3 3 3 4 4 5 5 5 5 5 5 4 4 3 3 3 3 2 2 2 2 2 1 1 1 1 1 1 1 1 0 0 0 1 1 1 1 1 1
1 1 1 2 2 2 3 3 4 4 5 5 5 5 5 4 4 3 3 3 2 2 2 2 2 1 1 1 1 1 1 1 1 1 0 0 0 0 0 1 1 1 0
Wind_Speed
18 18 19 16 15 15 15 14 14 13 12 12 11 10 9 9 9 9 9 10 10 11 11 11 10 10 10 11 11 11 11 10 9 9 9 9 8 7 6 6 3 9 10
21 19 19 17 15 14 14 14 14 13 12 12 11 10 9 9 8 8 7 8 8 9 9 9 9 9 9 9 8 8 8 7 5 5 6 7 7 6 5 5 8 8 9
21 19 18 16 15 14 14 13 13 13 12 11 10 10 9 8 7 7 6 6 6 7 7 8 8 8 7 7 6 6 5 3 2 2 5 5 7 7 6 5 7 8 7
20 17 16 17 16 15 14 13 13 13 12 11 10 9 9 8 7 6 6 5 5 5 5 5 6 6 5 5 5 4 3 2 4 5 6 7 7 10 8 5 4 4 4
18 16 17 18 16 15 14 12 12 12 12 11 10 9 8 7 7 6 6 5 4 4 4 4 4 4 4 4 3 3 3 4 6 9 8 4 6 12 11 8 6 5 5
18 18 18 17 16 15 14 13 12 12 11 10 10 9 8 8 7 7 6 6 5 4 4 3 3 3 3 4 4 5 5 6 8 9 8 5 6 13 13 11 8 7 7
19 18 18 17 16 15 14 13 12 11 11 10 9 9 8 7 7 7 7 6 6 5 5 4 4 4 4 5 6 7 7 8 8 9 8 5 5 15 14 12 10 9 9
20 19 17 17 16 15 14 13 12 12 11 10 10 9 8 7 7 6 7 7 6 6 6 5 6 6 6 7 7 8 9 10 10 10 9 7 8 16 15 13 11 9 9
20 19 16 15 14 14 13 13 12 12 11 10 10 9 8 8 8 8 7 8 8 8 7 7 7 8 8 8 9 10 11 12 10 8 11 7 11 17 15 13 11 10 10
18 18 16 15 13 12 12 13 13 12 11 11 10 10 9 9 9 10 10 10 10 9 9 9 10 10 10 10 11 12 13 12 11 11 8 8 11 16 14 12 11 11 11
15 16 15 15 13 12 13 14 13 12 11 11 10 11 10 9 10 11 14 14 14 12 12 12 12 12 12 12 15 15 13 8 11 9 8 9 13 15 14 12 12 12 12
12 14 13 14 14 13 11 11 10 10 10 10 8 10 9 8 7 9 13 16 16 15 14 14 14 13 11 9 12 16 8 11 11 8 5 11 15 15 14 13 13 13 14
9 11 11 13 11 12 8 9 7 7 8 10 10 9 8 7 6 6 5 9 11 13 10 11 12 9 9 7 6 5 9 9 6 6 4 13 14 14 14 14 13 14 15
11 11 12 12 9 7 7 7 7 7 6 8 10 10 8 5 5 4 3 5 7 6 7 7 5 8 9 8 7 7 8 6 5 4 5 14 15 16 16 15 15 15 15
11 11 9 9 9 6 5 3 7 6 6 7 6 9 7 5 5 5 3 2 2 3 4 5 5 5 5 5 6 7 7 7 7 6 4 14 17 18 18 17 17 17 17
14 13 11 10 9 7 5 4 3 4 4 4 4 7 9 6 4 3 3 2 3 4 3 2 3 3 3 4 5 6 6 7 7 7 6 9 18 18 19 19 19 19 18
13 12 10 10 9 9 8 7 6 6 6 5 4 5 7 6 5 4 3 3 3 3 3 2 3 3 4 5 5 7 6 7 7 7 6 5 7 16 20 20 20 19 19
9 9 10 11 11 10 8 6 6 7 6 4 4 4 6 6 5 4 3 2 2 2 1 2 2 3 4 4 5 6 6 6 7 8 7 7 6 7 14 22 21 19 19
6 6 8 7 9 10 10 7 7 5 5 4 3 3 5 7 6 3 3 2 1 1 1 3 2 2 4 5 5 6 6 7 7 9 8 7 7 6 6 12 21 21 21
4 4 5 6 5 6 7 6 6 7 6 5 4 4 4 4 5 4 3 3 2 1 1 2 3 3 3 4 7 8 6 8 8 8 9 8 6 7 7 8 9 14 20
2 2 3 3 4 4 4 5 6 7 6 5 5 5 5 5 5 4 4 3 3 3 3 3 3 4 4 3 4 6 7 9 11 9 7 6 6 5 4 5 4 6 8
4 2 1 2 3 4 4 4 4 4 4 5 4 3 4 5 5 5 5 4 4 3 3 4 3 3 4 3 3 4 5 6 6 5 3 3 4 3 4 5 4 5 5
6 5 4 3 3 4 5 4 5 4 4 5 4 4 5 5 5 5 5 5 4 4 4 5 4 5 4 4 3 3 3 4 5 5 5 4 3 2 2 3 4 4 4
5 4 4 4 3 4 4 5 7 6 7 7 5 4 5 6 6 6 6 6 5 5 5 6 5 4 4 4 4 4 5 4 3 4 4 4 5 4 4 4 4 3 2
4 4 3 3 4 4 4 5 6 7 6 6 5 6 5 5 6 7 7 6 6 5 5 6 4 4 3 4 4 3 3 4 5 4 5 5 4 4 3 4 3 3 3
3 3 3 3 3 4 5 5 6 7 7 7 7 6 5 5 6 8 7 6 6 6 6 5 5 5 5 4 3 3 3 3 2 3 4 5 4 4 3 2 3 3 3
Wind_Direction
125 133 135 134 136 140 143 142 140 138 138 137 134 130 124 118 111 103 96 92 89 88 88 89 90 88 84 80 79 79 78 79 85 93 99 99 96 91 84 72 57 106 101
126 133 135 135 137 140 143 144 143 142 142 142 141 138 135 131 125 117 108 100 94 91 92 92 94 95 95 93 92 92 91 94 104 118 128 130 125 112 93 56 42 103 108
126 134 137 137 137 140 142 144 146 146 146 147 146 144 143 142 139 134 126 116 105 100 98 98 100 102 104 106 107 108 110 116 154 187 200 189 150 141 121 92 86 106 116
128 139 140 139 139 141 143 145 146 147 147 148 148 148 148 150 152 151 146 139 130 119 112 110 111 113 116 121 127 134 150 211 261 264 241 224 169 153 145 132 125 131 143
133 139 136 144 142 143 145 146 147 148 149 150 152 153 156 160 165 168 166 165 163 154 144 137 133 135 144 153 164 182 210 244 270 274 268 246 151 159 159 159 171 187 194
137 136 141 148 146 147 150 151 152 152 154 155 158 161 166 171 176 177 177 181 185 185 182 177 177 180 189 200 209 221 235 251 270 267 260 248 159 166 166 171 184 204 215
141 135 146 151 151 153 156 158 159 159 159 161 163 167 172 177 184 185 187 190 195 200 203 208 215 221 227 232 235 238 244 253 260 275 282 271 163 165 172 178 189 207 222
137 137 145 153 155 158 163 165 166 166 167 168 171 174 180 185 191 193 195 199 204 212 219 228 235 240 243 244 245 246 249 258 259 263 262 254 171 171 178 184 192 209 226
138 137 149 155 160 164 169 173 174 175 176 178 180 184 189 195 201 206 208 209 211 216 223 232 240 245 248 247 247 248 250 252 265 273 275 264 181 176 183 187 197 213 229
136 142 155 159 163 169 175 180 182 183 185 188 192 195 200 206 212 215 215 214 218 220 227 235 241 245 247 247 247 247 249 253 253 257 258 255 188 180 186 191 203 219 231
144 147 159 161 167 176 181 180 183 190 195 197 202 207 210 218 214 211 220 210 210 217 225 234 241 246 249 248 245 243 245 244 251 247 243 226 182 182 189 197 209 222 233
158 156 164 163 172 184 193 169 185 192 192 203 206 199 207 225 236 225 204 201 206 215 223 232 239 245 246 249 242 230 232 236 246 251 237 186 179 186 194 203 213 225 234
171 170 168 163 175 188 195 165 188 197 185 198 216 202 207 221 228 225 184 189 204 215 222 229 229 234 237 235 249 216 221 240 237 245 215 182 186 193 201 210 218 228 235
181 186 178 168 173 198 201 179 187 199 186 192 199 205 205 209 237 242 212 189 195 205 207 226 210 214 231 238 238 238 228 237 247 243 205 188 192 201 209 215 221 229 235
182 193 182 172 173 192 222 218 196 204 200 196 192 191 208 208 208 228 236 223 252 252 209 209 231 226 231 247 251 253 245 245 249 244 222 196 201 208 214 218 223 228 233
185 194 188 180 175 181 203 222 253 229 211 219 197 186 193 211 213 215 214 212 241 264 279 250 266 266 256 259 264 267 258 256 255 248 242 211 213 215 217 221 224 227 230
189 190 181 180 181 183 204 212 226 236 233 214 215 195 185 198 214 209 222 217 233 247 259 267 290 297 283 279 273 269 263 252 253 253 250 247 224 219 222 224 226 227 228
189 179 180 192 188 185 198 214 226 235 238 222 206 200 189 198 212 205 207 230 257 277 297 307 279 292 298 300 296 293 289 280 267 256 247 238 235 235 220 222 225 226 227
178 166 173 199 190 187 195 207 230 248 254 257 228 203 190 192 198 190 206 215 238 293 303 292 290 275 282 287 286 276 273 273 270 269 263 252 240 236 231 215 218 222 224
150 154 169 188 203 193 194 203 220 236 237 233 234 224 194 178 179 180 187 196 202 219 250 265 274 278 271 274 284 287 290 283 274 264 261 258 247 242 242 239 212 219 221
95 139 172 205 209 222 225 220 220 229 234 234 227 213 196 186 186 181 194 181 189 204 218 232 250 266 270 270 276 281 274 268 263 255 246 241 243 253 260 251 211 206 214
12 12 232 240 243 237 244 250 249 251 249 241 233 209 199 191 190 194 197 198 200 207 221 229 236 247 259 253 247 269 282 277 273 285 285 260 254 248 257 267 243 219 215
6 359 344 338 306 281 274 266 265 261 256 253 236 219 211 206 207 211 207 204 204 212 223 226 222 233 247 261 252 248 269 277 328 309 317 312 307 295 288 300 280 249 235
358 353 349 338 322 307 294 274 268 261 257 254 244 230 216 212 214 216 216 209 207 216 219 226 225 224 234 254 266 250 250 279 290 304 313 323 332 323 313 307 306 307 296
335 336 337 337 326 314 303 290 281 275 273 275 266 246 229 217 216 222 222 219 219 224 224 227 226 221 223 239 251 272 285 272 249 258 289 310 318 315 314 312 321 331 336
316 312 318 320 315 308 300 296 290 289 288 283 271 255 237 223 218 216 218 217 220 222 220 223 224 230 227 237 250 259 265 271 284 267 286 305 308 308 313 340 352 346 345